Regional Weather Roundup
Issued by NWS

Home | Current Version | Previous Version | Graphics & Text | Print | Product List | Glossary On
Versions: 1 2 3 4 5 6 7 8 9 10 11 12 13 14 15 16 17 18 19 20 21 22 23 24 25 26 27 28 29 30 31 32 33 34 35 36 37 38 39 40 41 42 43 44 45 46 47 48 49 50
000
ASUS44 KMEG 280110
RWRTN
TENNESSEE HOURLY STATE WEATHER ROUNDUP
NATIONAL WEATHER SERVICE MEMPHIS TN
800 PM CDT FRI MAR 27 2015

TNZ002-004-019-021-049-052-054-088>092-280200-
WEST TENNESSEE

CITY           SKY/WX    TMP DP  RH WIND       PRES   REMARKS
MEMPHIS INTL   PTCLDY    44  30  57 N9        30.14R
NWS MEMPHIS      N/A     42 N/A N/A MISG        N/A
JACKSON        CLEAR     38  24  57 N10       30.15R WCI  31
DYERSBURG      CLEAR     37  16  41 N8        30.17S WCI  31
UNION CITY     PTCLDY    36  25  64 N10       30.15R WCI  28
PARIS          CLOUDY    36  23  60 N7        30.14R WCI  30
LEXINGTON      CLEAR     36  25  64 NW8       30.11R WCI  29
SAVANNAH       PTCLDY    39  27  60 N12       30.12R WCI  32
$$

TNZ008-025-027-028-033-062-065-066-280200-
NORTH MIDDLE TENNESSEE

CITY           SKY/WX    TMP DP  RH WIND       PRES   REMARKS
NASHVILLE      CLOUDY    39  30  70 NW9       30.10R WCI  33
CLARKSVILLE    CLOUDY    37  27  67 N10       30.12R WCI  30
SMYRNA         CLOUDY    39  31  73 N17       30.10R WCI  30
COOKEVILLE     CLOUDY    37  30  75 N7        30.02R WCI  32
CROSSVILLE     CLOUDY    36  27  69 NW17      29.98R WCI  26
$$

TNZ061-075-076-078-094-096-097-280200-
SOUTH MIDDLE TENNESSEE

CITY           SKY/WX    TMP DP  RH WIND       PRES   REMARKS
FAYETTEVILLE   CLOUDY    36  34  93 NW10      30.05R WCI  28
TULLAHOMA      MOCLDY    36  34  93 NW7       30.04R WCI  30
WINCHESTER     CLOUDY    37  34  87 N8        30.04R WCI  31
MCMINNVILLE    MOCLDY    39  30  70 N9        30.03R WCI  33
COLUMBIA       CLOUDY    37  37 100 N6        30.07R WCI  33
SHELBYVILLE    CLOUDY    39  36  87 N15       30.07R WCI  31
$$

TNZ017-018-042-046-047-280200-
NORTHEAST TENNESSEE

CITY           SKY/WX    TMP DP  RH WIND       PRES   REMARKS
TRI CITIES     LGT RAIN  38  31  76 NW15G28   29.90R WCI  29
ELIZABETHTON   LGT RAIN  37  27  65 NW9       29.88R WCI  31
$$

TNZ012-013-036-069-073-074-280200-
CENTRAL EAST TENNESSEE

CITY           SKY/WX    TMP DP  RH WIND       PRES   REMARKS
KNOXVILLE      CLOUDY    43  27  53 NW9       29.96R
OAK RIDGE      CLOUDY    43  25  49 VRB5      29.99R
GATLINBURG     CLOUDY    39  27  60 NW9       29.95R WCI  33
MORRISTOWN     MOCLDY    39  28  65 N9        29.94R WCI  33
$$

TNZ083-085-099-280200-
SOUTHEAST TENNESSEE

CITY           SKY/WX    TMP DP  RH WIND       PRES   REMARKS
CHATTANOOGA    MOCLDY    44  29  55 N9        29.99R
$$

SKY/WX REPORTED AS FAIR MEANS FEW OR NO CLOUDS BELOW
12 THOUSAND FEET.




USA.gov is the U.S. government's official web portal to all federal, state and local government web resources and services.